User: anonymous   Login
Location: Ariel
(45.9570°N, 122.5700°W)
Time: 18:25:15
(UTC-07:00)
Language:

SPROUT - Orbit

View from above orbital plane
View from above orbital plane
View from above satellite
View from above satellite

Ground track
Ground track

The orbit data is extracted from the following two-line orbital elements,

1 39770U 14029E   20297.87000831  .00000824  00000-0  96027-4 0  9991
2 39770  97.9042  43.6663 0007916 265.4251  94.6098 14.87919774348159
Epoch (UTC): 23 October 2020 20:52:48
Eccentricity: 0.0007916
inclination: 97.9042°
perigee height: 599 km
apogee height: 610 km
right ascension of ascending node: 43.6663°
argument of perigee: 265.4251°
revolutions per day: 14.87919774
mean anomaly at epoch: 94.6098°
orbit number at epoch: 34815

The dashed part of the orbit path shows where the satellite is in the earth's shadow,  

DLR